TimePDT,TemperatureF,Dew PointF,Humidity,Sea Level PressureIn,VisibilityMPH,Wind Direction,Wind SpeedMPH,Gust SpeedMPH,PrecipitationIn,Events,Conditions,WindDirDegrees,DateUTC
12:53 AM,46.0,39.9,79,30.17,10.0,SW,8.1,-,N/A,,Clear,230,2013-10-02 07:53:00
1:53 AM,45.0,39.9,82,30.17,10.0,SSW,5.8,-,N/A,,Clear,210,2013-10-02 08:53:00
2:53 AM,46.0,39.9,79,30.16,10.0,SW,9.2,-,N/A,,Clear,220,2013-10-02 09:53:00
3:53 AM,45.0,39.9,82,30.15,10.0,SW,6.9,-,N/A,,Clear,220,2013-10-02 10:53:00
4:53 AM,44.1,37.9,79,30.15,10.0,SSE,3.5,-,N/A,,Clear,160,2013-10-02 11:53:00
5:53 AM,41.0,37.9,89,30.14,10.0,ESE,3.5,-,N/A,,Clear,110,2013-10-02 12:53:00
6:53 AM,43.0,37.9,82,30.13,10.0,SE,5.8,-,N/A,,Clear,130,2013-10-02 13:53:00
7:53 AM,43.0,39.0,86,30.13,10.0,Calm,Calm,-,N/A,,Clear,0,2013-10-02 14:53:00
8:53 AM,48.0,41.0,77,30.13,10.0,ESE,6.9,-,N/A,,Scattered Clouds,110,2013-10-02 15:53:00
9:53 AM,51.1,41.0,68,30.13,10.0,Calm,Calm,-,N/A,,Clear,0,2013-10-02 16:53:00
10:53 AM,55.0,39.9,57,30.11,10.0,SW,6.9,-,N/A,,Partly Cloudy,220,2013-10-02 17:53:00
11:53 AM,57.0,39.9,53,30.09,10.0,Variable,3.5,-,N/A,,Clear,0,2013-10-02 18:53:00
12:53 PM,57.0,39.0,51,30.07,10.0,WNW,4.6,-,N/A,,Clear,290,2013-10-02 19:53:00
1:53 PM,57.0,41.0,55,30.05,10.0,NW,6.9,-,N/A,,Clear,310,2013-10-02 20:53:00
2:53 PM,57.9,39.9,51,30.04,10.0,WNW,4.6,-,N/A,,Clear,300,2013-10-02 21:53:00
3:53 PM,57.9,41.0,53,30.04,10.0,NW,6.9,-,N/A,,Clear,310,2013-10-02 22:53:00
4:53 PM,57.0,41.0,55,30.03,10.0,WNW,5.8,-,N/A,,Clear,300,2013-10-02 23:53:00
5:53 PM,55.0,42.1,62,30.04,10.0,WNW,5.8,-,N/A,,Clear,300,2013-10-03 00:53:00
6:53 PM,50.0,42.1,74,30.05,10.0,WNW,4.6,-,N/A,,Clear,290,2013-10-03 01:53:00
7:53 PM,46.0,41.0,83,30.06,10.0,NNW,5.8,-,N/A,,Clear,330,2013-10-03 02:53:00
8:53 PM,46.0,41.0,83,30.07,10.0,WNW,3.5,-,N/A,,Clear,300,2013-10-03 03:53:00
9:53 PM,48.0,39.9,74,30.07,10.0,Calm,Calm,-,N/A,,Overcast,0,2013-10-03 04:53:00
10:53 PM,48.9,41.0,74,30.07,10.0,WSW,4.6,-,N/A,,Partly Cloudy,240,2013-10-03 05:53:00
11:53 PM,46.9,39.9,77,30.09,10.0,WNW,4.6,-,N/A,,Partly Cloudy,300,2013-10-03 06:53:00